www.pogodaiklimat.ru
ПОГОДА в Тяжине
Время
(UTC), дата
00 7.10
03 7.10
06 7.10
09 7.10
12 7.10
15 7.10
18 7.10
21 7.10
00 8.10
03 8.10
06 8.10
09 8.10
12 8.10
15 8.10
18 8.10
21 8.10
00 9.10
03 9.10
06 9.10
09 9.10
12 9.10
15 9.10
18 9.10
21 9.10
00 10.10
03 10.10
06 10.10
09 10.10
12 10.10
15 10.10
18 10.10
21 10.10
00 11.10
03 11.10
06 11.10
09 11.10
12 11.10
15 11.10
18 11.10
21 11.10
00 12.10
03 12.10
06 12.10
09 12.10
12 12.10
15 12.10
18 12.10
21 12.10
00 13.10
03 13.10
06 13.10
09 13.10
12 13.10
15 13.10
18 13.10
21 13.10
Ветер
(напр.,м/с)
Видим. Явления Облачность Т
(С)
Тd
(С)
f
(%)
Тe
(С)
Тes
(С)
Комфортность P
(гПа)
Po
(гПа)
Тmin
(С)
Tmax
(С)
R
(мм)
R24
(мм)
S
(см)
Ю 2 10 км ясно +7.1 +4.7 85 +5 +5 тепло 1023.3 996.0 +6.9
Ю 2 20 км 5 баллов +13.4 +7.8 69 +13 +14 тепло 1024.0 997.3
З 4 20 км 5/0
[Ci fib]
+19.2 +5.6 41 +20 +21 тепло 1023.5 997.3
З 4 20 км 6 баллов +20.4 +3.6 33 +21 +21 комфорт 1022.1 996.0
З 2 20 км 5/0
[Ac lent Cc]
+15.2 +3.7 46 +15 +15 тепло 1020.5 994.1 +20.8
З 2 20 км 6/0
[Ac trans Cc]
+11.4 +4.1 61 +10 +10 тепло 1021.6 994.7
Ю 1 20 км {ливн. осадки} 8/4 600 м
[Cb cap Ac trans Cc]
+10.4 +5.0 69 +10 +10 тепло 1021.7 994.7
З 1 20 км 6/3 600 м
[Sc diur, vesp Ac trans Ci fib]
+9.8 +3.8 66 +10 +10 тепло 1020.3 993.3
СЗ 2 20 км 10/5 600 м
[Sc diur, vesp Ac lent Ci fib]
+10.4 +3.1 61 +9 +9 тепло 1019.8 993.0 +9.3 0.0
СЗ 2 20 км 8/8 840 м
[Sc diur, vesp]
+11.3 +3.9 60 +10 +11 тепло 1020.7 993.9 +8.7
СЗ 3 20 км 3/0
[Ac lent Cc]
+14.5 +2.4 44 +14 +17 тепло 1021.3 994.7
СЗ 4 20 км 9/5 600 м
[Sc Ac cast]
+14.7 +0.5 38 +14 +14 тепло 1021.3 994.7
С 3 20 км 9/8 700 м
[Sc Ci fib]
+11.8 +0.7 46 +11 +11 тепло 1022.4 995.6 +15.5
С 2 20 км 4/0
[Ac trans Cc]
+6.0 -1.6 58 +4 +4 по сезону 1026.2 998.7
С 2 20 км ясно +2.2 -2.9 69 -1 -1 по сезону 1028.0 1000.0
С 2 20 км ясно -0.6 -3.6 80 -4 -4 прохладно 1029.6 1001.3
С 1 20 км 3/0
[Ci fib]
-1.9 -4.7 81 -4 -4 прохладно 1029.7 1001.4 -1.9
СВ 1 20 км 3/0
[Ci fib]
+1.9 -3.6 67 +1 +2 по сезону 1032.1 1004.0 -2.6
С 1 20 км 4/0
[Ci fib]
+6.0 -4.6 46 +6 +10 тепло 1030.0 1002.4
СВ 2 20 км 3/0
[Ci fib]
+7.7 -5.7 38 +6 +8 тепло 1030.2 1002.7
СВ 1 20 км 6/0
[Ac lent Ci fib]
+4.6 -5.1 49 +4 +4 по сезону 1029.0 1001.3 +7.9
СВ 1 10 км 8/0
[Ci fib]
-0.9 -5.3 72 -3 -3 прохладно 1031.1 1002.7
В 2 10 км 4/0
[Cc]
+0.4 -6.5 60 -3 -3 прохладно 1030.9 1002.7
СВ 2 20 км ясно -1.4 -7.1 65 -5 -5 холодно 1029.7 1001.3
СВ 2 20 км ясно -4.2 -8.3 73 -8 -8 очень
холодно
1030.3 1001.7 -4.2
В 3 20 км ясно +1.0 -8.8 48 -3 -2 прохладно 1030.9 1002.7
В 3 20 км ясно +5.2 -9.1 35 +3 +6 по сезону 1029.6 1001.9
В 3 20 км ясно +6.3 -10.4 29 +4 +6 по сезону 1030.3 1002.7
В 2 10 км 3/0
[Ci fib]
+2.2 -12.7 32 0 0 по сезону 1029.6 1001.7 +6.5
В 2 10 км ясно -0.6 -12.8 39 -3 -3 прохладно 1031.0 1002.7
В 2 10 км ясно -3.1 -11.6 52 -7 -7 холодно 1029.9 1001.3
В 2 20 км ясно -4.6 -11.4 59 -8 -8 очень
холодно
1028.7 1000.0
В 2 20 км ясно -5.5 -11.2 64 -9 -9 очень
холодно
1028.5 999.8 -5.5
ЮВ 2 20 км ясно -1.3 -9.4 54 -5 -3 холодно 1029.7 1001.3 -6.1
В 3 20 км ясно +5.9 -9.5 32 +4 +7 по сезону 1028.9 1001.3
В 3 20 км 2 балла +8.5 -12.6 21 +7 +8 тепло 1027.3 1000.0
В 3 20 км 3/0
[Ci fib]
+4.7 -12.7 27 +2 +2 по сезону 1027.1 999.4 +8.5
В 3 20 км 4 балла +0.9 -12.5 36 -3 -3 прохладно 1028.1 1000.0
В 2 20 км 4 балла -1.4 -12.1 44 -4 -4 прохладно 1028.4 1000.0
В 2 20 км 6 баллов -2.0 -11.8 47 -5 -5 холодно 1027.1 998.7
В 3 20 км 10/0
[Ci fib]
-2.7 -11.0 53 -7 -7 холодно 1026.5 998.1 -2.8
ЮВ 2 20 км 10 баллов +0.9 -8.6 49 -2 -2 по сезону 1028.1 1000.0
ЮВ 3 20 км 10 баллов +6.7 -9.2 31 +5 +5 тепло 1027.5 1000.0
ЮВ 2 20 км 2 балла +10.0 -9.6 24 +9 +11 тепло 1027.2 1000.0
СВ 1 10 км 1/0
[Ci fib]
+4.9 -10.0 33 +5 +5 тепло 1027.4 999.7 +10.1
штиль 0 10 км ясно -2.4 -8.5 63 -3 -3 прохладно 1029.8 1001.3
Ю 1 10 км 2 балла -4.1 -8.4 72 -6 -6 холодно 1030.0 1001.3
Ю 1 10 км 4 балла -5.3 -8.7 77 -8 -8 очень
холодно
1030.1 1001.3
Ю 1 10 км 8/0
[Cc]
-5.9 -8.7 81 -8 -8 очень
холодно
1029.8 1001.1 -5.9
Ю 1 10 км 10 баллов +0.1 -5.7 65 -1 -1 по сезону 1031.0 1002.7 -5.9
Ю 3 20 км 10 баллов +12.3 -6.7 26 +11 +11 тепло 1029.7 1002.7
Ю 2 20 км 2 балла +15.6 -6.0 22 +16 +17 тепло 1028.0 1001.3
З 1 10 км 6/0
[Ac lent Cc]
+8.6 -6.2 34 +9 +9 тепло 1027.3 1000.0 +15.8
Ю 2 10 км 7 баллов +3.2 -5.2 54 +1 +1 по сезону 1029.2 1001.3
Ю 1 10 км 7 баллов +2.7 -5.9 53 +2 +2 по сезону 1027.9 1000.0
Ю 1 10 км 10 баллов +2.2 -5.2 58 +1 +1 по сезону 1026.6 998.7
Местоположение метеостанции Тяжин (Кемеровская область, Россия): широта 56.12 долгота 88.52 высота над уровнем моря 223 м.
В архиве по умолчанию представлена погода в Тяжине за последнюю неделю. Архивные данные за месяц целиком и за предыдущие месяцы, начиная с января 2011 года, Вы можете получить, выбрав интересующий диапазон дат из раскрывающегося списка и нажав кнопку "Найти!".
*Определитесь, кто Вы:
Внимание! Время в таблицах - всемирное. Для получения местного времени необходимо прибавить поправку, которая равна 7 ч.
Смотрите также архив погоды в соседних городах и на ближайших метеорологических станциях:
Партнеры нашего сайта:      
Пояснения к столбцам:
  • Ветер - указаны скорость ветра в м/с - средняя за 10 мин, порывы в срок и между сроками (в фигурных скобках) и направление, откуда дует ветер: С - северный,
  • СВ - северо-восточный, В - восточный, ЮВ - юго-восточный, Ю - южный, ЮЗ - юго-западный, З - западный, СЗ - северо-западный.
  • Видимость - горизонтальная дальность видимости в метрах или километрах. При видимости от 1 до 10 км при отсутствии осадков обычно наблюдается дымка, при ухудшении видимости до 1 км и менее - туман. В сухую погоду видимость может ухудшаться дымом, пылью или мглою.
  • Явления - указаны атмосферные явления, наблюдавшиеся в срок или в последний час перед сроком; фигурными скобками обозначены явления, наблюдавшиеся между сроками (за 1-3 часа до срока); квадратными скобками обозначены град или гололедные отложения с указанием их диаметра в мм.
  • Облачность - указаны через наклонную черту общая и нижняя облачность в баллах и высота нижней границы облаков в метрах; квадратными скобками обозначены формы облаков: Ci - перистые, Cs - перисто-слоистые, Cc - перисто-кучевые, Ac - высококучевые, As - высокослоистые, Sc - слоисто-кучевые, Ns - слоисто-дождевые, Cu - кучевые, Cb - кучево-дождевые. Подробнее классификацию облаков см. в Атласе облаков (PDF).
  • T - Температура воздуха - температура, измеренная на высоте 2 м над землей.
  • Td - Температура точки росы - температура, при понижении до которой содержащийся в воздухе водяной пар достигнет насыщения.
  • f - Относительная влажность воздуха - влажноcть воздуха, измеренная на высоте 2 м над землей.
  • Te - Эффективная температура - температура, которую ощущает одетый по сезону человек в тени. Характеристика душности погоды. При расчете учитывается влияние влажности воздуха и скорости ветра на теплоощущения человека.
  • Tes - Эффективная температура на солнце - температура, которую ощущает человек, с поправкой на солнечный нагрев. Характеристика знойности погоды. Зависит от высоты солнца над горизонтом, облачности и скорости ветра. Ночью, в пасмурную погоду, а также при ветре 12 м/с и более поправка равна нулю.
  • P - Атмосферное давление - приведенное к уровню моря атмосферное давление.
  • Po - Атмосферное давление - измеренное на уровне метеостанции атмосферное давление.
  • Tmin - Минимальная температура - минимум температуры воздуха на высоте 2 м над землей.
  • Tmax - Максимальная температура - максимум температуры воздуха на высоте 2 м над землей.
  • R - Количество осадков - Количество выпавших осадков за период времени, мм. При наведении курсора мыши на число - период времени, за который выпало указанное количество осадков.
  • R24 - Количество осадков - Количество выпавших осадков за 24 часа, мм.
  • S - Снежный покров - Высота снежного покрова, см. При наведении курсора мыши на число - состояние снежного покрова и степень покрытия местности в баллах.